SL-16 DEB, 22350

Orbit data source: Space-Track

SL-16 DEB, 22350 is space debris in LEO originally from a launch on Fri, 25 Dec 1992 UTC launched from the Tyuratam Missile And Space Complex (TTMTR). Debris objects in space refer to the collection of defunct objects orbiting the Earth. Examples of debris include non-operational satellites, rocket bodies, and fragments generated from explosions, collisions, or faulty payload assembly.

Loading next visibility...
Identifier
22350, 1992-093AP
Orbit
LEO
Country
Flag of CISCIS
Related business
Manufacturer
Unknown
Mission
Spacecraft
Bus & Motor
Unknown
Mass
Unknown
Launch date (UTC)
1992-12-25 (33 years ago)
Launch vehicle
Unknown
Launch site
Tyuratam Missile And Space Complex (TTMTR)
Object type
Payload
Rocket body
Debris
Shape & HBR
Unknown shape, 0.4 m
Radar Cross Section
Medium (>0.1 m² and <1 m²)

Expand to show TLE details & history
Last TLE update: 16 hours ago

TLE from 16 hours ago
0 SL-16 DEB
1 22350U 92093AP  25352.93945781  .00000165  00000-0  12630-3 0  9995
2 22350  70.9104  80.3668 0069644 346.0206 127.4164 14.06215227690589
Epoch: 2025-12-18T22:32Z
TLE epoch observation values (Epoch: 2025-12-18T22:32:49.154Z)
Latitude
59.74706°
Longitude
158.19916°
Altitude
912.861 km
Speed
7.386 km/s
True Right ascension
14h 56m 46s
True Declination
59° 36' 01"
Sunlit
Object was in daylight at epoch
Visualization orbit readout
Latitude
Unknown
Longitude
Unknown
Altitude
Unknown
Speed
Unknown
Apparent Right ascension
Unknown
Apparent Declination
Unknown
Sunlit
N/A
Visualization observer readout
Local Sidereal Time
13:11:32
Azimuth
Unknown
Elevation
Unknown
Doppler factor
Unknown
Orbital elements
Apogee altitude
920.775 km
Perigee altitude
819.813 km
Semi-major axis
7,248.431 km
Eccentricity
0.00696
Inclination
70.9104°
RAAN
80.3668°
Arg. of periapsis
346.0206°
True anomaly
128.0469°
Mean anomaly
127.4164°
Eccentric anomaly
127.73199°
Mean motion
3.51704 °/min
Orbital period
102.36 mins
BSTAR
0.0001263
Loading maneuver chart data...
Computing Atmospheric mass density...
Loading historical data...
Loading historical data...
Loading historical data...
Loading historical data...
Loading historical data...
Loading historical data...
Loading historical data...

Documentation

Showing up to 5 results
|